[[{"header":{"parameterUnit":"m.s-1","parameterCategory":1,"la1":30.2991,"la2":30.254,"lo1":-89.0895,"lo2":-89.0444,"dy":0.0017,"dx":0.0017,"nx":28,"ny":28,"refTime":"2024-10-21T21:00:00:Z","depth":0,"parameterNumber":2,"parameterNumberName":"U-component_of_WINDS"},"data":[0,0,0,0,0,0,0,0,0,0,0,0,0,0,0,0,0,0,0,0,0,0,0,0,0,0,0,0,0,0,0,0,0,0,0,0,0,0,0,0,0,0,0,0,0,0,0,0,0,0,0,0,0,0,0,0,0,0,-2.2425,-2.2425,0,-2.2464,-2.2464,-2.2465,-2.2398,-2.2396,-2.2394,-2.2392,-2.2434,-2.2437,-2.244,0,0,0,0,0,0,0,0,0,0,0,0,0,-2.2295,-2.2298,-2.2425,-2.2425,-2.2426,-2.2464,-2.2464,-2.2465,-2.2399,-2.2396,-2.2393,-2.239,-2.2433,-2.2437,-2.2441,0,0,0,0,0,0,0,0,0,0,0,0,0,-2.2345,-2.2299,-2.2425,-2.2397,-2.2395,-2.2464,-2.2464,-2.2465,-2.2399,-2.2396,-2.2392,-2.2389,-2.2432,-2.2436,-2.2441,-2.2539,0,0,-2.2456,-2.2458,0,0,0,0,0,0,0,0,-2.2342,-2.2349,-2.2401,-2.2399,-2.2397,-2.2423,-2.2434,-2.249,-2.24,-2.2398,-2.2391,-2.2388,-2.2433,-2.2438,-2.2453,-2.2541,-2.2543,-2.2457,-2.246,-2.2462,-2.2463,0,0,0,0,0,0,0,-2.2338,-2.2347,-2.244,-2.2402,-2.2399,-2.2384,-2.2387,-2.2444,-2.2434,-2.2398,-2.2393,-2.2398,-2.2432,-2.2448,-2.2453,-2.2544,-2.2456,-2.2461,-2.2464,-2.2466,-2.2716,-2.272,0,0,0,0,0,0,-2.2338,-2.2345,-2.2439,-2.2441,-2.236,-2.2389,-2.2392,-2.2418,-2.2433,-2.2432,-2.2401,-2.2395,-2.2441,-2.2448,-2.2454,-2.2572,-2.2462,-2.2466,-2.2469,-2.2713,-2.2717,-2.2721,0,0,0,0,0,0,-2.2336,-2.2347,-2.2437,-2.2392,-2.2402,-2.2395,-2.2424,-2.242,-2.2437,-2.2436,-2.2434,-2.242,-2.2439,-2.2448,-2.2519,-2.2572,-2.2468,-2.2473,-2.2708,-2.2714,-2.2719,-2.2806,0,0,0,0,0,0,-2.2332,-2.2347,-2.2383,-2.2393,-2.2405,-2.2501,-2.2427,-2.2424,-2.2445,-2.2438,-2.2453,-2.2452,-2.2437,-2.2512,-2.2524,-2.2577,-2.2477,-2.2703,-2.2711,-2.2717,-2.2799,-2.2814,-2.2827,0,0,0,0,0,-2.2328,-2.2407,-2.2386,-2.2397,-2.2451,-2.2504,-2.2511,-2.2491,-2.245,-2.2487,-2.2486,-2.2452,-2.2564,-2.252,-2.2532,-2.2588,-2.27,-2.2709,-2.2717,-2.2792,-2.2811,-2.2827,0,0,0,0,0,0,-2.2404,-2.2407,-2.2384,-2.2468,-2.2486,-2.2493,-2.2539,-2.2511,-2.2542,-2.2534,-2.2508,-2.2513,-2.259,-2.2595,-2.2546,-2.2684,-2.2625,-2.2637,-2.2678,-2.2696,-2.271,-2.2708,-2.2481,0,0,0,0,0,-2.243,-2.2473,-2.2474,-2.2548,-2.2558,-2.2547,-2.257,-2.2553,-2.2571,-2.2579,-2.2583,-2.2603,-2.2642,-2.2669,-2.2705,-2.2798,-2.2802,-2.2843,-2.2857,-2.2869,-2.288,-2.2931,-2.295,-2.2749,-2.2749,-2.2749,0,0,-2.2486,-2.2493,-2.2522,-2.2564,-2.2576,-2.2621,-2.2554,-2.2605,-2.2639,-2.2586,-2.2655,-2.2658,-2.2679,-2.2762,-2.2798,-2.2769,-2.2936,-2.288,-2.2889,-2.2894,-2.2942,-2.2961,-2.2978,-2.2754,-2.2753,-2.2753,0,0,-2.2611,-2.262,-2.2683,-2.2697,-2.2715,-2.2707,-2.2723,-2.2733,-2.2734,-2.2801,-2.2763,-2.2803,-2.2872,-2.2888,-2.2905,-2.3036,-2.3006,-2.3049,-2.3125,-2.3175,-2.3191,-2.3205,-2.3254,-2.3271,-2.3059,-2.3059,-2.3059,0,-2.2678,-2.2745,-2.272,-2.2774,-2.2794,-2.2747,-2.2812,-2.2826,-2.2856,-2.2872,-2.2838,-2.2923,-2.2933,-2.302,-2.3052,-2.3067,-2.3085,-2.3048,-2.319,-2.3204,-2.3217,-2.3263,-2.3281,-2.3064,-2.3064,-2.3063,-2.3063,0,-2.2827,-2.2874,-2.2923,-2.2953,-2.2978,-2.3038,-2.3023,-2.3051,-2.3032,-2.3028,-2.3098,-2.3108,-2.3146,-2.3165,-2.3147,-2.325,-2.3231,-2.3194,-2.3135,-2.3242,-2.3285,-2.3302,-2.3072,-2.307,-2.3068,-2.3067,0,0,-2.3003,-2.3018,-2.3037,-2.305,-2.3067,-2.3103,-2.316,-2.3197,-2.3223,-2.3245,-2.3294,-2.3352,-2.3318,-2.3338,-2.3321,-2.3365,-2.347,-2.3322,-2.3322,-2.3351,-2.3587,-2.3616,-2.3637,-2.3449,-2.3452,-2.3455,-2.3586,0,-2.3129,-2.3227,-2.3207,-2.3304,-2.3348,-2.3303,-2.3353,-2.337,-2.3368,-2.3405,-2.3402,-2.3445,-2.3396,-2.3408,-2.3449,-2.3449,-2.3517,-2.3438,-2.3496,-2.3498,-2.3495,-2.3659,-2.3691,-2.3814,-2.3602,-2.3605,-2.3607,0,-2.329,-2.3317,-2.3419,-2.343,-2.3447,-2.3493,-2.3525,-2.3561,-2.3578,-2.3574,-2.3596,-2.357,-2.3628,-2.3566,-2.3646,-2.3593,-2.3615,-2.3619,-2.3623,-2.363,-2.3561,-2.3673,-2.3852,-2.3872,-2.3633,-2.3631,-2.3629,0,-2.3411,-2.3473,-2.3542,-2.3555,-2.3568,-2.3602,-2.3609,-2.3623,-2.3647,-2.3675,-2.369,-2.3725,-2.3745,-2.3773,-2.3758,-2.3713,-2.3842,-2.3778,-2.3841,-2.3842,-2.3872,-2.3871,-2.406,-2.3882,-2.3882,-2.3882,-2.3881,0,-2.3555,-2.362,-2.3597,-2.364,-2.3711,-2.3686,-2.3758,-2.376,-2.3773,-2.3816,-2.3779,-2.3821,-2.3797,-2.3837,-2.3825,-2.3895,-2.3904,-2.3903,-2.3899,-2.3908,-2.3908,-2.3923,-2.3916,-2.3887,-2.3885,-2.3884,-2.3884,0,-2.3704,-2.3691,-2.3764,-2.377,-2.3773,-2.3826,-2.3832,-2.3872,-2.3866,-2.3922,-2.3933,-2.3925,-2.397,-2.3957,-2.4006,-2.3998,-2.4087,-2.4071,-2.4081,-2.4078,-2.4143,-2.4138,-2.4351,-2.4379,-2.4181,-2.4182,-2.4184,0,-2.3798,-2.3846,-2.3858,-2.3884,-2.3894,-2.3936,-2.396,-2.3937,-2.3964,-2.3988,-2.4026,-2.4067,-2.41,-2.4174,-2.4173,-2.4211,-2.4197,-2.4269,-2.4203,-2.421,-2.4201,-2.42,-2.4205,-2.4283,-2.4286,-2.4287,-2.4289,0,-2.3967,-2.3959,-2.3994,-2.4028,-2.4057,-2.4082,-2.4104,-2.4128,-2.4107,-2.4138,-2.4184,-2.4209,-2.4258,-2.4301,-2.4335,-2.4343,-2.4314,-2.4309,-2.4326,-2.4337,-2.4341,-2.4342,-2.412,-2.4305,-2.4304,-2.4303,-2.4302,-2.4301,-2.4093,-2.4135,-2.415,-2.4191,-2.4205,-2.4226,-2.4265,-2.4264,-2.4301,-2.4339,-2.4323,-2.4376,-2.4393,-2.4436,-2.4448,-2.449,-2.4463,-2.4487,-2.4493,-2.4501,-2.451,-2.4333,-2.4496,-2.4495,-2.4495,-2.4494,-2.4494,0,-2.4263,-2.427,-2.4308,-2.434,-2.4372,-2.4339,-2.4362,-2.4392,-2.4439,-2.4456,-2.4489,-2.4542,-2.4583,-2.4584,-2.4623,-2.4656,-2.4644,-2.4667,-2.4666,-2.4669,-2.4531,-2.4513,-2.4677,-2.4677,-2.4677,-2.4677,-2.4677,-2.4677,-2.4355,-2.4424,-2.4418,-2.4494,-2.45,-2.4551,-2.4567,-2.4587,-2.4602,-2.4662,-2.4696,-2.4696,-2.4708,-2.4747,-2.4784,-2.4783,-2.48,-2.483,-2.4824,-2.4696,-2.4678,-2.4661,-2.4645,-2.4833,-2.4833,-2.4959,-2.496,-2.4961]},{"header":{"parameterUnit":"m.s-1","parameterCategory":1,"la1":30.2991,"la2":30.254,"lo1":-89.0895,"lo2":-89.0444,"dy":0.0017,"dx":0.0017,"nx":28,"ny":28,"refTime":"2024-10-21T21:00:00:Z","depth":0,"parameterNumber":3,"parameterNumberName":"V-component_of_WINDS"},"data":[0,0,0,0,0,0,0,0,0,0,0,0,0,0,0,0,0,0,0,0,0,0,0,0,0,0,0,0,0,0,0,0,0,0,0,0,0,0,0,0,0,0,0,0,0,0,0,0,0,0,0,0,0,0,0,0,0,0,-3.2134,-3.2134,0,-3.2155,-3.2155,-3.2155,-3.2112,-3.2111,-3.2109,-3.2108,-3.2127,-3.2129,-3.2131,0,0,0,0,0,0,0,0,0,0,0,0,0,-3.2054,-3.2056,-3.2134,-3.2134,-3.2134,-3.2155,-3.2155,-3.2155,-3.2113,-3.2111,-3.2109,-3.2108,-3.2127,-3.2129,-3.2131,0,0,0,0,0,0,0,0,0,0,0,0,0,-3.2083,-3.2056,-3.2134,-3.2115,-3.2114,-3.2155,-3.2155,-3.2155,-3.2113,-3.2111,-3.2109,-3.2107,-3.2126,-3.2129,-3.2131,-3.219,0,0,-3.214,-3.2141,0,0,0,0,0,0,0,0,-3.2081,-3.2086,-3.2118,-3.2117,-3.2115,-3.2129,-3.2134,-3.2167,-3.2113,-3.2113,-3.2108,-3.2106,-3.2129,-3.2132,-3.214,-3.2191,-3.2191,-3.214,-3.2141,-3.2143,-3.2143,0,0,0,0,0,0,0,-3.208,-3.2085,-3.2142,-3.2118,-3.2117,-3.2105,-3.2107,-3.214,-3.2133,-3.2113,-3.211,-3.2113,-3.2128,-3.2138,-3.214,-3.2192,-3.214,-3.2142,-3.2144,-3.2145,-3.2291,-3.2293,0,0,0,0,0,0,-3.208,-3.2084,-3.2141,-3.2142,-3.2093,-3.2108,-3.211,-3.2126,-3.2132,-3.2131,-3.2115,-3.2111,-3.2134,-3.2137,-3.2141,-3.2209,-3.2143,-3.2145,-3.2147,-3.2289,-3.2291,-3.2294,0,0,0,0,0,0,-3.2079,-3.2086,-3.214,-3.2112,-3.2118,-3.2112,-3.213,-3.2128,-3.2137,-3.2134,-3.2132,-3.2126,-3.2132,-3.2137,-3.2178,-3.2209,-3.2146,-3.2149,-3.2286,-3.2289,-3.2292,-3.2348,0,0,0,0,0,0,-3.2077,-3.2085,-3.2108,-3.2113,-3.212,-3.2178,-3.2132,-3.213,-3.2142,-3.2138,-3.2144,-3.2143,-3.2131,-3.2174,-3.2181,-3.2212,-3.2151,-3.2283,-3.2287,-3.2291,-3.2343,-3.2352,-3.2361,0,0,0,0,0,-3.2074,-3.2122,-3.211,-3.2117,-3.2149,-3.218,-3.2184,-3.2171,-3.2145,-3.2168,-3.2165,-3.2142,-3.2205,-3.2179,-3.2186,-3.2218,-3.2281,-3.2286,-3.2291,-3.2339,-3.2351,-3.236,0,0,0,0,0,0,-3.2121,-3.2123,-3.2109,-3.216,-3.2171,-3.2173,-3.2201,-3.2183,-3.22,-3.2195,-3.2177,-3.2178,-3.2223,-3.2224,-3.2195,-3.2275,-3.2239,-3.2245,-3.2272,-3.2283,-3.2292,-3.2291,-3.2153,0,0,0,0,0,-3.2137,-3.2164,-3.2164,-3.2209,-3.2215,-3.2207,-3.222,-3.2209,-3.2219,-3.2223,-3.2223,-3.2232,-3.2254,-3.2269,-3.2288,-3.2343,-3.2343,-3.2369,-3.2377,-3.2385,-3.2391,-3.2419,-3.2431,-3.231,-3.231,-3.231,0,0,-3.2171,-3.2176,-3.2193,-3.2219,-3.2225,-3.2252,-3.2211,-3.2241,-3.2261,-3.2227,-3.2266,-3.2267,-3.2276,-3.2324,-3.2345,-3.2326,-3.2424,-3.2391,-3.2397,-3.2399,-3.2426,-3.2437,-3.2447,-3.2314,-3.2313,-3.2313,0,0,-3.2247,-3.2254,-3.2292,-3.23,-3.231,-3.2305,-3.2314,-3.2319,-3.2319,-3.2358,-3.2333,-3.2355,-3.2393,-3.2401,-3.2409,-3.2488,-3.2468,-3.2495,-3.2541,-3.2569,-3.2579,-3.2587,-3.2615,-3.2625,-3.2501,-3.2501,-3.2501,0,-3.2288,-3.2329,-3.2314,-3.2346,-3.2358,-3.2329,-3.2368,-3.2375,-3.2392,-3.24,-3.2379,-3.2426,-3.243,-3.2479,-3.2499,-3.2507,-3.2516,-3.2494,-3.2579,-3.2587,-3.2594,-3.2621,-3.2631,-3.2504,-3.2504,-3.2503,-3.2503,0,-3.2379,-3.2407,-3.2437,-3.2454,-3.2469,-3.2504,-3.2494,-3.2511,-3.2498,-3.2495,-3.2534,-3.2538,-3.2558,-3.2569,-3.2557,-3.2617,-3.2605,-3.2582,-3.2545,-3.2609,-3.2634,-3.2644,-3.2509,-3.2508,-3.2507,-3.2506,0,0,-3.2485,-3.2494,-3.2505,-3.2513,-3.2522,-3.2544,-3.2577,-3.2597,-3.2612,-3.2624,-3.2651,-3.2684,-3.2663,-3.2673,-3.2661,-3.2685,-3.2747,-3.2659,-3.2659,-3.2675,-3.2813,-3.2831,-3.2843,-3.2734,-3.2736,-3.2737,-3.2813,0,-3.2561,-3.262,-3.2607,-3.2665,-3.269,-3.2663,-3.2692,-3.2701,-3.2698,-3.2719,-3.2715,-3.2739,-3.2709,-3.2715,-3.2738,-3.2735,-3.2775,-3.2729,-3.2759,-3.276,-3.2758,-3.2856,-3.2875,-3.2946,-3.2822,-3.2824,-3.2825,0,-3.2657,-3.2674,-3.2734,-3.2739,-3.275,-3.2776,-3.2794,-3.2814,-3.2823,-3.2819,-3.283,-3.2813,-3.2846,-3.2808,-3.2852,-3.2822,-3.2833,-3.2833,-3.2836,-3.2838,-3.2797,-3.2861,-3.2968,-3.2979,-3.284,-3.2839,-3.2838,0,-3.2729,-3.2766,-3.2807,-3.2814,-3.2821,-3.2841,-3.2844,-3.2851,-3.2864,-3.2879,-3.2887,-3.2905,-3.2915,-3.2929,-3.2918,-3.2892,-3.2964,-3.2925,-3.2961,-3.2962,-3.2978,-3.2977,-3.3089,-3.2985,-3.2985,-3.2984,-3.2984,0,-3.2815,-3.2853,-3.284,-3.2865,-3.2906,-3.2891,-3.2932,-3.2932,-3.2939,-3.2963,-3.294,-3.2963,-3.2946,-3.2967,-3.2958,-3.2996,-3.3,-3.2998,-3.2995,-3.3,-3.3001,-3.3007,-3.3002,-3.2987,-3.2987,-3.2986,-3.2985,0,-3.2903,-3.2895,-3.2938,-3.2941,-3.2943,-3.2974,-3.2976,-3.2999,-3.2994,-3.3025,-3.3031,-3.3024,-3.3048,-3.3038,-3.3063,-3.3056,-3.3105,-3.3096,-3.3103,-3.31,-3.3137,-3.3134,-3.3257,-3.3272,-3.3158,-3.3159,-3.316,0,-3.2958,-3.2987,-3.2994,-3.3008,-3.3014,-3.3038,-3.3052,-3.3037,-3.3052,-3.3064,-3.3085,-3.3107,-3.3124,-3.3163,-3.316,-3.3179,-3.3169,-3.3211,-3.3172,-3.3176,-3.317,-3.3169,-3.3172,-3.3219,-3.3221,-3.3222,-3.3223,0,-3.3058,-3.3053,-3.3073,-3.3093,-3.3109,-3.3123,-3.3135,-3.3149,-3.3135,-3.3152,-3.3177,-3.319,-3.3216,-3.3238,-3.3254,-3.3257,-3.3238,-3.3235,-3.3244,-3.325,-3.3253,-3.3252,-3.3124,-3.3232,-3.3231,-3.3231,-3.323,-3.323,-3.3131,-3.3155,-3.3164,-3.3187,-3.3195,-3.3207,-3.3229,-3.3227,-3.3248,-3.3268,-3.3258,-3.3286,-3.3294,-3.3314,-3.3319,-3.3341,-3.3324,-3.3338,-3.3341,-3.3345,-3.335,-3.3249,-3.3344,-3.3343,-3.3343,-3.3343,-3.3343,0,-3.3229,-3.3234,-3.3255,-3.3273,-3.3292,-3.3272,-3.3285,-3.3301,-3.3327,-3.3336,-3.3353,-3.3381,-3.3402,-3.34,-3.3419,-3.3437,-3.3428,-3.3442,-3.3441,-3.3442,-3.3363,-3.3354,-3.3449,-3.3449,-3.3449,-3.3449,-3.3449,-3.3449,-3.3283,-3.3323,-3.3319,-3.3362,-3.3365,-3.3394,-3.3403,-3.3413,-3.342,-3.3453,-3.347,-3.3469,-3.3474,-3.3493,-3.3511,-3.351,-3.3518,-3.3536,-3.3531,-3.3458,-3.3448,-3.3437,-3.3428,-3.3538,-3.3538,-3.3608,-3.3609,-3.3609]}]]